Wind_Speed
22 22 22 22 21 20 19 18 18 18 18 17 17 16 16 17 17 19 19 20 22 23 24 25 27 29 31 32 33 32 30 28 25 24 21 20 20 20 19 19 19 19 18
22 22 22 22 21 20 19 18 18 18 19 19 19 18 18 18 18 19 19 19 20 21 23 25 25 29 31 33 34 34 32 31 28 26 24 23 22 22 22 21 20 20 20
23 23 23 22 21 20 19 18 19 19 19 20 21 21 20 20 20 20 20 20 20 20 21 23 23 25 29 33 35 34 32 32 30 29 27 26 25 25 25 25 23 22 22
24 24 24 23 22 21 20 19 20 20 20 20 21 22 22 23 23 23 23 23 22 22 21 21 22 24 26 30 33 34 33 33 31 29 28 27 27 26 27 28 27 25 24
24 25 24 23 22 22 21 22 22 22 21 21 21 22 23 23 24 24 24 24 23 23 22 20 20 22 23 24 28 31 33 32 32 30 28 28 27 28 28 29 29 28 27
24 24 23 24 24 23 23 23 23 23 23 23 23 22 23 23 24 25 25 25 24 23 22 21 20 20 21 22 23 26 29 30 31 31 30 29 29 29 30 30 30 29 29
23 23 23 24 24 24 24 24 24 24 25 25 25 24 24 24 25 26 26 26 26 25 25 23 22 21 21 21 21 22 25 27 30 32 31 30 30 30 30 30 29 29 30
22 22 22 23 24 25 25 25 25 25 25 26 26 26 25 25 26 26 27 27 27 26 26 25 24 23 22 22 22 22 23 25 27 29 31 32 31 30 29 29 29 29 29
20 21 23 24 25 26 26 25 25 25 25 26 26 26 26 26 26 26 26 27 27 27 27 26 25 25 24 24 23 23 23 23 24 26 28 30 32 33 32 32 32 32 31
20 22 23 25 25 25 24 23 23 23 23 23 24 25 25 26 26 26 26 26 27 27 27 27 27 26 25 24 24 24 24 24 24 25 26 28 30 31 33 33 33 33 33
21 22 23 23 23 22 21 21 20 20 21 21 22 23 24 25 25 27 27 27 27 27 27 27 27 27 26 25 24 24 24 25 25 25 25 26 27 29 32 34 35 35 36
21 22 22 22 21 20 19 18 18 19 20 21 22 23 24 25 26 27 27 28 28 28 28 27 26 26 26 25 25 25 24 24 25 25 26 26 27 27 28 31 34 36 38
20 21 21 20 19 17 17 17 17 18 20 21 22 23 25 26 27 28 28 29 28 28 27 26 26 25 24 24 24 24 24 24 24 25 25 25 26 26 26 27 29 32 35
19 19 19 18 17 17 16 16 16 17 19 19 20 22 24 25 26 27 28 28 28 27 26 24 23 23 23 22 23 23 23 23 23 23 24 24 24 24 24 25 26 28 30
19 19 19 18 17 16 14 14 15 16 17 18 18 18 19 20 21 22 23 24 24 24 23 22 21 21 22 22 22 23 23 23 22 22 21 21 22 22 23 24 25 26 29
20 19 18 16 15 13 13 13 14 14 15 15 15 14 13 12 11 13 15 16 17 18 18 18 18 19 20 20 20 21 21 21 21 21 21 21 21 22 22 23 24 26 28
20 18 16 14 13 12 12 12 12 13 13 14 13 12 10 7 5 4 6 8 10 12 13 14 15 16 16 17 17 18 19 20 20 21 21 22 22 22 23 24 25 27 28
17 15 14 12 11 11 11 11 11 12 12 13 12 11 9 7 5 3 2 4 6 8 9 10 11 12 13 14 15 17 19 20 21 22 23 24 24 25 25 26 27 27 29
15 14 13 12 11 11 11 11 12 12 12 12 11 11 10 9 7 6 5 4 3 5 6 7 9 10 12 13 15 17 18 20 22 23 24 25 26 27 28 29 30 30 31
14 14 13 13 12 13 13 13 13 13 13 12 12 11 10 9 8 6 5 3 2 1 3 5 7 9 11 13 15 17 18 20 21 23 24 25 26 28 29 30 31 32 33
14 14 14 14 14 15 15 15 15 15 15 14 14 13 12 11 9 8 7 5 4 2 2 4 6 8 10 12 14 16 17 18 20 21 23 25 26 27 28 28 29 30 31
14 15 15 15 15 16 16 16 17 16 16 16 15 15 14 13 12 11 10 9 8 7 6 6 6 8 9 11 12 14 15 17 19 20 21 23 24 25 26 27 27 28 28
15 15 15 15 15 15 16 16 17 17 17 17 17 17 17 16 15 14 13 12 11 10 9 8 8 8 8 9 9 11 12 14 15 17 19 20 21 23 24 25 26 26 27
14 14 14 14 14 14 15 15 16 16 17 17 18 18 18 18 17 16 15 14 14 13 12 12 12 11 10 10 10 11 12 13 15 17 18 19 20 21 22 23 24 24 25
12 12 12 12 12 13 13 14 14 15 16 17 17 18 18 19 19 18 17 17 16 16 16 15 15 14 14 14 14 15 15 16 17 18 19 19 20 21 22 23 23 24 25
10 10 11 11 11 11 12 12 13 13 14 15 16 16 17 17 18 17 17 17 17 17 17 17 17 17 17 18 19 19 20 21 22 22 22 22 22 22 22 23 23 24 25
Wind_Direction
297 296 297 299 298 296 292 288 285 281 276 275 274 271 268 267 267 269 269 268 264 259 257 254 247 243 240 237 235 232 231 234 237 241 243 246 248 249 249 248 250 251 252
297 298 300 302 301 297 292 288 287 284 278 273 271 270 269 267 268 270 271 272 271 264 258 255 250 242 240 237 236 233 232 236 240 244 246 246 247 249 250 250 251 253 255
296 299 302 304 302 298 293 290 288 286 282 276 271 270 269 267 267 269 270 271 273 270 263 259 254 247 243 239 238 237 238 239 240 244 248 249 248 248 250 252 252 254 258
295 299 302 303 302 298 294 291 290 288 284 280 274 270 268 266 265 267 267 268 269 269 268 264 258 254 250 241 238 238 240 241 242 245 247 249 250 248 249 252 254 256 259
296 299 301 302 302 299 295 292 289 287 285 283 278 273 270 267 265 264 264 265 267 267 267 266 261 255 252 247 243 241 242 241 241 243 246 249 250 251 250 252 255 258 261
295 297 298 298 298 296 294 291 288 287 286 284 281 277 273 269 267 264 262 262 263 264 264 263 262 259 255 253 250 246 243 242 240 242 245 247 250 252 253 254 255 259 260
294 296 297 298 298 297 295 292 289 287 285 284 281 277 274 270 268 266 263 262 262 262 263 263 263 262 259 256 254 252 251 247 245 245 246 247 249 252 255 256 257 257 257
297 298 299 299 298 297 296 293 289 287 284 282 280 277 273 270 269 268 265 263 263 262 262 262 262 261 259 258 257 256 255 253 251 250 248 249 250 251 253 255 257 258 258
298 300 301 301 299 297 295 292 289 287 283 280 277 275 272 269 269 268 266 264 263 262 261 260 261 260 259 258 257 256 256 256 255 254 252 251 250 250 250 252 255 257 256
303 304 303 302 301 299 296 293 290 288 285 281 277 274 271 268 266 265 264 262 261 260 258 258 258 258 258 257 256 256 256 258 258 257 256 255 252 250 249 249 249 250 252
307 308 307 305 304 301 297 294 292 290 288 284 280 276 272 268 266 264 263 260 259 257 256 256 256 255 255 255 255 255 255 257 260 261 261 260 257 253 252 250 248 248 249
311 312 311 309 307 302 298 296 295 294 292 288 284 280 275 270 265 262 260 259 257 256 255 254 253 253 253 252 253 254 255 257 259 261 262 264 263 261 259 257 254 251 250
314 315 314 311 309 305 303 301 300 298 295 291 288 283 278 272 266 262 259 258 256 256 254 253 251 250 250 247 248 250 252 254 257 259 261 264 266 266 265 264 260 254 250
319 319 318 316 313 310 308 307 307 307 305 298 294 290 283 276 268 262 259 256 254 254 253 251 248 246 246 246 246 248 249 251 254 258 261 263 264 265 264 263 261 258 253
326 323 321 319 317 315 313 313 314 315 317 314 310 305 297 286 274 264 259 255 251 249 247 245 244 243 244 245 245 247 248 249 253 258 263 265 265 266 266 264 262 261 257
329 325 322 320 320 319 319 322 324 327 331 333 329 324 316 306 284 267 256 247 240 237 236 236 237 238 240 240 242 244 247 251 254 259 263 266 267 269 269 266 264 263 260
332 330 328 326 325 325 327 331 336 341 345 348 350 347 342 335 316 278 240 226 223 222 223 228 232 233 233 235 239 243 248 253 257 260 263 266 268 269 269 269 268 267 264
338 339 339 339 339 338 338 341 345 351 356 1 5 10 14 20 35 62 130 177 193 200 208 217 224 228 233 239 246 250 255 258 261 264 266 268 268 269 270 270 269 269 268
350 352 355 357 357 357 358 359 0 3 6 10 14 20 29 39 54 68 84 115 162 194 213 228 235 240 246 252 257 260 263 265 267 269 269 270 270 271 272 272 272 272 271
4 8 11 13 15 16 18 18 19 20 22 23 26 29 34 42 49 57 66 75 91 201 251 260 264 265 265 266 268 270 272 273 273 272 272 273 274 274 275 275 274 274 273
15 19 22 24 27 29 30 32 33 35 36 37 38 40 43 48 52 55 57 54 45 16 320 297 288 284 281 280 280 279 280 280 279 279 279 279 278 279 279 279 279 277 276
23 27 30 32 33 34 36 37 39 39 40 40 42 44 47 49 51 51 50 46 39 29 12 350 330 315 304 297 293 291 289 288 288 289 287 286 284 284 283 282 282 281 280
30 33 34 35 35 36 38 39 40 41 42 44 46 47 49 50 51 50 49 46 41 35 26 16 6 355 344 334 325 317 312 309 306 304 302 298 295 292 291 289 287 285 284
31 34 36 37 37 38 39 41 44 47 49 50 52 53 54 55 56 56 55 53 49 44 39 34 29 24 17 10 1 351 341 333 327 322 318 313 308 304 300 297 294 290 287
28 31 33 34 36 39 41 43 46 49 52 53 54 56 56 57 57 57 56 54 50 47 43 39 35 31 26 21 14 8 1 353 346 340 334 328 322 316 310 305 299 294 290
24 28 32 34 36 39 42 45 46 48 51 52 52 52 52 52 51 50 48 46 43 40 37 34 31 28 24 21 17 12 7 1 355 350 345 341 336 330 324 316 308 300 295
Height
5795 5793 5792 5790 5788 5786 5785 5784 5783 5782 5782 5782 5782 5782 5782 5783 5783 5784 5785 5786 5787 5788 5789 5790 5793 5796 5799 5804 5808 5812 5816 5820 5822 5825 5827 5829 5831 5833 5834 5837 5838 5840 5842
5790 5788 5787 5785 5783 5781 5780 5779 5778 5778 5777 5777 5777 5777 5778 5778 5779 5779 5780 5780 5781 5782 5783 5785 5786 5789 5792 5796 5800 5804 5808 5812 5815 5818 5821 5824 5825 5827 5829 5831 5833 5835 5836
5784 5783 5782 5780 5778 5776 5775 5774 5773 5773 5772 5772 5772 5772 5773 5773 5774 5774 5775 5775 5776 5777 5778 5779 5780 5782 5785 5788 5792 5797 5801 5804 5808 5811 5813 5816 5819 5821 5823 5825 5827 5829 5831
5779 5778 5776 5775 5773 5772 5770 5769 5768 5767 5767 5766 5766 5766 5767 5767 5768 5769 5769 5770 5771 5772 5773 5774 5775 5776 5778 5781 5784 5789 5793 5797 5800 5803 5806 5808 5811 5813 5816 5817 5820 5822 5825
5774 5772 5771 5769 5768 5766 5765 5763 5762 5761 5761 5760 5760 5760 5760 5761 5761 5762 5763 5764 5765 5766 5767 5768 5769 5771 5772 5775 5778 5781 5785 5789 5792 5795 5798 5800 5803 5805 5808 5810 5812 5814 5817
5768 5767 5766 5764 5762 5760 5759 5757 5756 5755 5754 5754 5753 5753 5754 5754 5755 5755 5757 5758 5759 5761 5762 5763 5764 5766 5767 5769 5771 5774 5777 5781 5784 5787 5790 5792 5795 5797 5799 5802 5804 5807 5808
5763 5762 5760 5758 5756 5754 5753 5751 5750 5748 5747 5747 5746 5746 5747 5747 5747 5748 5750 5751 5753 5755 5756 5758 5759 5760 5762 5764 5766 5768 5770 5773 5776 5779 5782 5785 5787 5789 5791 5793 5795 5798 5799
5758 5756 5755 5752 5750 5748 5746 5745 5743 5742 5741 5740 5739 5739 5740 5740 5740 5741 5742 5744 5746 5748 5749 5751 5753 5755 5757 5758 5760 5762 5764 5766 5768 5771 5774 5776 5779 5781 5783 5785 5786 5788 5791
5753 5751 5749 5747 5744 5742 5739 5737 5736 5735 5734 5733 5732 5732 5732 5732 5733 5734 5736 5737 5738 5740 5742 5744 5746 5748 5750 5752 5754 5755 5757 5759 5761 5763 5765 5767 5770 5772 5774 5776 5778 5779 5781
5749 5746 5744 5741 5738 5735 5732 5730 5729 5728 5726 5725 5725 5724 5724 5725 5726 5727 5728 5729 5731 5733 5734 5736 5738 5740 5742 5744 5747 5749 5750 5752 5754 5755 5757 5759 5761 5763 5765 5767 5769 5771 5772
5744 5742 5739 5735 5732 5729 5727 5725 5723 5721 5720 5719 5718 5717 5717 5718 5718 5719 5720 5721 5723 5725 5727 5729 5731 5733 5735 5737 5739 5742 5743 5745 5747 5748 5750 5751 5753 5755 5756 5758 5760 5762 5764
5740 5737 5734 5730 5727 5724 5722 5720 5718 5716 5714 5713 5711 5710 5710 5710 5710 5710 5711 5713 5715 5717 5719 5721 5724 5726 5728 5730 5733 5734 5736 5738 5740 5741 5742 5744 5745 5746 5747 5748 5750 5752 5753
5735 5732 5729 5726 5723 5720 5718 5716 5714 5711 5709 5707 5705 5703 5701 5701 5701 5701 5703 5705 5707 5709 5711 5714 5716 5719 5721 5724 5726 5728 5730 5731 5733 5734 5735 5736 5737 5737 5738 5739 5740 5741 5743
5731 5728 5725 5722 5719 5716 5714 5712 5709 5707 5704 5700 5698 5696 5693 5692 5692 5692 5694 5696 5698 5701 5704 5707 5710 5712 5715 5717 5719 5721 5723 5725 5726 5727 5727 5728 5729 5729 5730 5730 5731 5732 5733
5728 5725 5721 5718 5715 5713 5710 5708 5705 5702 5699 5695 5692 5688 5685 5683 5683 5683 5684 5687 5690 5694 5697 5701 5703 5706 5709 5711 5713 5715 5717 5718 5719 5720 5720 5721 5721 5722 5722 5722 5723 5723 5724
5725 5721 5718 5715 5712 5710 5708 5705 5702 5699 5696 5692 5687 5684 5681 5678 5677 5677 5678 5681 5684 5688 5692 5695 5698 5700 5703 5705 5707 5709 5711 5712 5713 5713 5714 5714 5714 5714 5714 5714 5714 5715 5715
5722 5719 5715 5713 5710 5708 5705 5703 5700 5697 5694 5690 5686 5683 5679 5677 5675 5675 5676 5678 5681 5685 5688 5691 5693 5695 5697 5700 5702 5703 5705 5706 5706 5707 5707 5707 5707 5707 5707 5707 5706 5706 5706
5721 5717 5714 5711 5709 5706 5704 5701 5699 5696 5693 5690 5686 5683 5681 5678 5677 5677 5677 5679 5681 5683 5686 5688 5690 5692 5694 5696 5697 5698 5699 5700 5700 5700 5700 5700 5699 5699 5699 5698 5698 5697 5697
5720 5717 5714 5711 5708 5706 5703 5701 5698 5695 5693 5690 5688 5685 5683 5681 5680 5680 5680 5681 5682 5683 5685 5686 5688 5689 5691 5692 5693 5693 5694 5694 5693 5693 5693 5692 5692 5691 5690 5690 5689 5688 5687
5721 5718 5715 5712 5710 5707 5704 5702 5699 5697 5694 5692 5689 5687 5685 5684 5683 5682 5682 5682 5683 5684 5685 5686 5686 5687 5687 5688 5688 5688 5688 5687 5687 5686 5685 5685 5684 5683 5682 5680 5679 5678 5677
5723 5720 5717 5714 5712 5709 5707 5704 5702 5699 5697 5694 5692 5690 5688 5686 5685 5684 5684 5684 5684 5684 5684 5684 5684 5684 5684 5684 5683 5683 5682 5681 5680 5679 5678 5677 5675 5674 5672 5671 5669 5668 5666
5725 5722 5720 5718 5715 5713 5710 5708 5705 5703 5700 5698 5695 5693 5691 5689 5688 5687 5686 5685 5685 5685 5684 5683 5683 5682 5681 5680 5679 5678 5677 5676 5675 5673 5671 5670 5668 5666 5664 5662 5660 5658 5656
5728 5726 5724 5721 5719 5717 5714 5712 5709 5707 5704 5702 5699 5697 5695 5693 5691 5690 5689 5688 5687 5686 5685 5684 5682 5681 5680 5678 5677 5676 5674 5672 5670 5668 5666 5663 5661 5658 5656 5654 5651 5649 5647
5732 5730 5727 5725 5723 5721 5719 5716 5714 5712 5709 5707 5704 5702 5700 5697 5696 5694 5692 5691 5690 5688 5687 5685 5684 5682 5680 5678 5676 5675 5672 5670 5667 5664 5661 5658 5655 5652 5649 5646 5643 5640 5638
5735 5733 5731 5729 5727 5725 5723 5721 5718 5716 5714 5712 5710 5708 5705 5703 5701 5699 5697 5695 5694 5692 5690 5688 5686 5684 5682 5679 5677 5674 5671 5668 5665 5661 5657 5653 5650 5646 5642 5639 5635 5632 5629
5738 5736 5734 5732 5731 5729 5727 5724 5722 5721 5719 5717 5715 5713 5710 5708 5706 5704 5702 5700 5698 5696 5694 5691 5689 5686 5683 5681 5678 5674 5671 5667 5662 5658 5653 5649 5644 5640 5636 5631 5627 5624 5620